FW2439 Weather Reports


time (UTC)temp
C
wind
direction
speed
KPH
gust
KPH
rain 1hr
cm
rain 24hr
cm
rain mn
cm
humidity
%
barometer
mb
20260509103105 12 224 0.0 4.8 0.00 0.00 0.00 96 1009.4
20260509101622 12 200 0.0 4.8 0.00 0.00 0.00 96 1009.6
20260509100057 12 231 0.0 4.8 0.00 0.00 0.00 96 1009.8
20260509094602 12 231 0.0 4.8 0.00 0.00 0.00 95 1009.8
20260509093104 12 219 0.0 3.2 0.00 0.00 0.00 95 1009.7
20260509091551 12 221 0.0 3.2 0.00 0.00 0.00 95 1009.9
20260509090100 12 230 0.0 3.2 0.00 0.00 0.00 95 1009.9
20260509084550 12 240 0.0 1.6 0.00 0.00 0.00 95 1010.1
20260509083050 12 240 0.0 1.6 0.00 0.00 0.00 94 1010.0
20260509081550 12 240 0.0 1.6 0.00 0.00 0.00 94 1009.8
20260509080049 12 240 0.0 1.6 0.00 0.00 0.00 94 1009.9
20260509074549 12 240 0.0 0.0 0.00 0.00 0.00 93 1010.0
20260509073055 12 240 0.0 0.0 0.00 0.00 0.00 93 1010.2
20260509071554 12 240 0.0 1.6 0.00 0.00 0.00 93 1010.1
20260509070047 12 240 0.0 3.2 0.00 0.00 0.00 93 1010.5
20260509064551 12 228 0.0 0.0 0.00 0.00 0.00 93 1010.4
20260509063043 12 229 0.0 0.0 0.00 0.00 0.00 92 1010.7
20260509061538 12 228 0.0 0.0 0.00 0.00 0.00 91 1010.8
20260509060038 12 228 0.0 0.0 0.00 0.00 0.00 91 1011.3
20260509054544 12 228 0.0 0.0 0.00 0.00 0.00 90 1011.3
20260509053033 12 228 0.0 0.0 0.00 0.00 0.00 90 1011.3
20260509051529 12 229 0.0 0.0 0.00 0.00 0.00 89 1011.4
20260509050026 13 229 0.0 0.0 0.00 0.00 0.00 88 1011.4
20260509044528 13 228 0.0 0.0 0.00 0.00 0.00 87 1011.4
20260509043026 13 228 0.0 0.0 0.00 0.00 0.00 86 1011.2
20260509041535 13 228 0.0 3.2 0.00 0.00 0.00 86 1011.5
20260509040029 13 228 0.0 1.6 0.00 0.00 0.00 85 1011.2
20260509034525 14 228 0.0 4.8 0.00 0.00 0.00 84 1011.5
20260509033025 13 229 0.0 3.2 0.00 0.00 0.00 84 1011.4
20260509031532 13 229 0.0 1.6 0.00 0.00 0.00 83 1011.5
20260509030024 14 229 0.0 0.0 0.00 0.00 0.00 82 1011.5
20260509024523 14 229 0.0 0.0 0.00 0.00 0.00 80 1011.5
20260509023027 15 229 0.0 1.6 0.00 0.00 0.00 79 1011.4
20260509021527 15 229 0.0 1.6 0.00 0.00 0.00 78 1011.5
20260509020039 15 229 0.0 0.0 0.00 0.00 0.00 77 1011.5
20260509014522 16 229 0.0 1.6 0.00 0.00 0.00 75 1011.3
20260509013035 16 229 0.0 0.0 0.00 0.00 0.00 74 1011.5
20260509011521 17 229 0.0 0.0 0.00 0.00 0.00 69 1011.2
20260509010022 18 229 0.0 1.6 0.00 0.00 0.00 66 1011.3
20260509004521 19 229 0.0 1.6 0.00 0.00 0.00 64 1011.2
20260509003020 20 229 0.0 1.6 0.00 0.00 0.00 62 1011.0
20260509001518 21 229 0.0 3.2 0.00 0.00 0.00 60 1011.1
20260509000016 21 231 0.0 3.2 0.00 0.00 0.00 58 1011.0
20260508234515 22 212 0.0 9.7 0.00 0.00 0.00 56 1011.2
20260508233016 22 218 1.6 8.0 0.00 0.00 0.00 57 1011.2
20260508231512 23 214 0.0 12.9 0.00 0.00 0.00 53 1011.3
20260508230011 23 236 1.6 6.4 0.00 0.00 0.00 48 1011.3
20260508224514 24 230 1.6 11.3 0.00 0.00 0.00 49 1011.5
20260508223007 24 166 3.2 12.9 0.00 0.00 0.00 48 1011.7
20260508221507 25 235 3.2 11.3 0.00 0.00 0.00 49 1011.8
20260508220002 25 244 1.6 9.7 0.00 0.00 0.00 50 1012.0
20260508214504 25 162 1.6 6.4 0.00 0.00 0.00 47 1011.9
20260508213059 24 172 8.0 17.7 0.00 0.00 0.00 48 1011.8
20260508211558 25 232 3.2 12.9 0.00 0.00 0.00 48 1011.9
20260508210054 25 240 1.6 9.7 0.00 0.00 0.00 48 1011.9
20260508204555 25 282 0.0 8.0 0.00 0.00 0.00 50 1012.1
20260508203049 24 137 0.0 9.7 0.00 0.00 0.00 50 1012.2
20260508201549 24 211 3.2 11.3 0.00 0.00 0.00 52 1012.3
20260508200103 24 307 1.6 9.7 0.00 0.00 0.00 46 1012.5
20260508194541 24 236 0.0 4.8 0.00 0.00 0.00 47 1012.7
20260508193051 23 163 1.6 8.0 0.00 0.00 0.00 49 1012.8
20260508191537 23 154 3.2 8.0 0.00 0.00 0.00 47 1013.3
20260508190033 23 167 1.6 6.4 0.00 0.00 0.00 50 1013.7
20260508184531 23 229 1.6 6.4 0.00 0.00 0.00 51 1014.2
20260508183029 22 193 6.4 17.7 0.00 0.00 0.00 51 1014.1
20260508181536 22 250 1.6 9.7 0.00 0.00 0.00 48 1014.4
20260508180029 22 214 3.2 9.7 0.00 0.00 0.00 50 1014.7
20260508174522 22 112 1.6 11.3 0.00 0.00 0.00 49 1015.0
20260508173021 22 174 4.8 11.3 0.00 0.00 0.00 51 1015.2
20260508171518 21 248 3.2 16.1 0.00 0.00 0.00 51 1015.5
20260508170013 21 212 1.6 14.5 0.00 0.00 0.00 53 1015.9
20260508164513 21 178 1.6 11.3 0.00 0.00 0.00 50 1016.4
20260508163013 21 215 0.0 16.1 0.00 0.00 0.00 52 1016.6
20260508161510 21 359 1.6 6.4 0.00 0.00 0.00 53 1016.6
20260508160006 21 246 1.6 8.0 0.00 0.00 0.00 55 1016.8
20260508154504 20 224 0.0 4.8 0.00 0.00 0.00 55 1016.8
20260508153003 20 230 1.6 6.4 0.00 0.00 0.00 57 1017.0
20260508151609 20 319 1.6 14.5 0.00 0.00 0.00 59 1017.2
20260508150059 20 203 3.2 9.7 0.00 0.00 0.00 58 1017.4
20260508144609 19 222 0.0 4.8 0.00 0.00 0.00 62 1017.4
20260508143105 19 253 0.0 3.2 0.00 0.00 0.00 65 1017.5
20260508141604 18 233 1.6 6.4 0.00 0.00 0.00 66 1017.8
20260508140050 18 256 0.0 1.6 0.00 0.00 0.00 76 1018.1
20260508134557 16 256 0.0 1.6 0.00 0.00 0.00 87 1018.0
20260508133050 12 256 0.0 1.6 0.00 0.00 0.00 99 1018.2
20260508131535 11 269 0.0 1.6 0.00 0.00 0.00 100 1018.2
20260508130034 9 269 0.0 0.0 0.00 0.00 0.00 99 1018.1
20260508124534 8 269 0.0 0.0 0.00 0.00 0.00 99 1018.2
20260508123043 7 269 0.0 0.0 0.00 0.00 0.00 99 1018.1
20260508121530 6 269 0.0 0.0 0.00 0.00 0.00 98 1018.1
20260508120024 5 269 0.0 0.0 0.00 0.00 0.00 98 1017.8
20260508114523 5 269 0.0 0.0 0.00 0.00 0.00 98 1017.6
20260508113023 5 269 0.0 0.0 0.00 0.00 0.00 98 1017.5
20260508111527 5 269 0.0 0.0 0.00 0.00 0.00 97 1017.1
20260508110025 5 269 0.0 0.0 0.00 0.00 0.00 97 1017.2
20260508104520 5 269 0.0 0.0 0.00 0.00 0.00 97 1017.2